Location: Unspecified
(0.0000°N, 0.0000°E)
Time: 18:20:26
(UTC+00:00)

Vanguard 1 - Pass Details

Date: 07 October 2020
Orbit: 650 x 3833 km, 34.3° (Epoch: 26 October)

Event Time Altitude Azimuth Distance (km) Brightness Sun altitude
Rises 13:33:35 0° 227° (SW) 7,699 15.0 62.9°
Reaches altitude 10° 13:38:45 10° 224° (SW) 6,840 14.9 61.7°
Maximum altitude 14:02:25 66° 144° (SE) 3,722 13.7 55.9°
Drops below altitude 10° 14:19:32 10° 65° (ENE) 5,232 13.5 51.7°
Sets 14:22:49 0° 63° (ENE) 5,898 13.7 50.8°
